Wind_Speed
55 54 58 63 60 61 61 72 70 51 48 45 59 50 46 49 58 62 63 59 54 46 43 39 35 32 33 36 40 40 40 40 38 37 35 35 33 30 28 28 28 27 26 23
48 50 55 59 62 63 62 68 76 72 62 42 59 59 51 49 55 61 64 62 57 52 47 43 38 34 31 36 36 35 36 36 38 41 39 36 35 32 30 27 30 29 26 24
42 42 51 61 59 58 58 59 68 77 71 58 65 55 50 47 53 60 65 63 60 57 50 45 38 37 35 34 35 35 34 35 36 38 38 37 36 34 29 28 31 29 26 25
37 36 43 49 49 49 59 56 59 72 72 67 63 60 50 49 52 58 65 65 63 59 51 45 41 38 37 32 31 34 35 36 35 34 36 37 37 34 31 30 30 28 26 25
29 30 35 41 54 56 61 55 62 65 71 67 61 59 54 50 50 56 65 65 62 59 54 50 42 40 36 31 28 31 34 36 34 31 35 37 37 36 34 31 30 28 27 25
28 30 34 37 46 51 53 51 55 60 64 64 63 61 58 52 48 54 65 64 63 60 55 56 48 41 39 36 33 29 27 32 34 34 35 35 37 37 35 33 33 31 27 23
24 30 31 39 46 44 53 49 50 54 58 62 63 60 59 54 49 49 59 62 60 61 54 56 51 44 43 39 34 31 33 31 35 36 36 36 38 39 37 35 34 31 28 26
24 27 33 35 38 42 50 47 42 50 49 59 61 57 61 47 49 49 50 53 59 60 56 60 58 46 42 42 38 39 37 33 32 37 37 39 39 37 36 35 34 32 29 27
23 17 29 35 30 34 42 41 40 46 49 57 58 58 52 45 47 50 48 50 59 62 60 62 60 54 49 45 45 43 41 39 33 34 38 39 39 37 36 35 33 30 29 28
6 9 17 39 40 28 40 38 33 39 51 53 54 56 50 46 46 42 43 43 50 59 59 61 57 53 53 57 51 52 47 44 36 34 37 38 39 37 35 35 33 31 31 30
9 2 8 25 37 37 34 43 50 43 46 50 51 52 52 49 45 39 41 42 47 56 55 56 55 58 53 56 59 54 51 46 36 31 36 38 40 39 38 37 36 36 35 35
11 11 4 8 15 34 43 52 50 46 47 50 50 47 47 49 45 42 45 46 45 48 49 53 56 55 57 59 57 55 53 43 39 37 38 41 43 42 40 38 36 36 38 41
2 10 8 8 18 17 48 50 38 38 45 49 49 44 41 46 46 46 50 50 49 48 50 53 49 44 54 59 56 52 51 41 37 39 37 39 44 43 46 45 47 45 41 40
13 4 7 11 16 19 50 49 44 40 42 44 42 43 41 44 49 52 54 51 52 51 57 56 55 56 57 60 62 69 64 56 49 41 41 41 43 44 50 52 61 55 47 39
9 11 5 12 15 26 40 45 48 50 45 46 45 47 44 43 50 55 54 56 51 48 53 58 56 57 60 56 52 48 54 48 54 45 48 52 51 50 52 51 52 45 45 47
7 6 7 1 14 31 43 45 46 44 42 38 45 48 49 45 46 53 56 52 55 49 51 58 57 55 54 51 47 46 46 45 49 57 74 68 66 66 65 54 44 36 42 43
14 11 10 7 4 23 31 44 46 42 44 46 45 46 48 47 46 49 57 54 54 56 53 49 54 53 53 50 49 52 50 49 51 53 57 52 40 26 40 43 47 40 33 36
13 11 10 10 11 8 16 33 41 45 46 50 51 49 54 53 52 51 55 59 61 60 57 55 55 50 48 49 51 55 58 56 51 47 49 46 40 37 38 37 36 38 38 40
12 11 9 5 5 7 11 10 27 40 49 51 41 42 41 46 55 53 54 54 60 59 61 58 56 59 59 54 50 53 53 53 52 51 49 49 47 47 43 37 38 38 47 45
14 12 8 7 7 7 7 7 12 19 23 30 29 29 37 43 50 48 51 59 59 60 60 58 57 58 54 52 54 50 51 53 53 55 53 52 51 51 49 45 47 46 46 50
18 15 14 10 8 9 12 11 13 16 20 26 28 29 29 35 36 42 34 47 56 60 61 63 63 60 59 60 58 56 53 55 57 57 59 58 57 56 54 57 58 56 55 53
21 22 20 16 14 11 10 14 14 14 16 20 25 30 34 37 38 40 42 42 44 46 48 62 67 66 65 63 63 65 66 64 64 65 65 66 64 63 61 61 63 62 61 61
24 23 21 21 18 17 15 15 15 18 19 21 23 24 27 30 34 40 42 43 44 44 44 45 50 54 63 75 73 71 73 68 70 74 72 74 73 72 72 71 71 71 70 69
21 22 23 21 21 20 19 18 17 19 20 21 23 24 25 25 28 31 33 38 41 45 49 50 52 53 56 55 57 58 66 70 67 65 68 73 72 77 81 78 78 78 77 73
21 20 19 19 20 20 20 21 20 20 20 22 22 24 26 26 27 27 29 33 34 37 40 42 48 54 58 60 60 62 64 68 70 68 67 67 65 70 66 74 82 82 74 76
21 22 21 22 21 18 17 18 18 20 21 22 22 23 22 22 24 25 25 26 28 32 33 35 35 37 42 51 59 64 68 70 72 74 73 73 71 70 75 73 71 75 81 79
22 22 24 24 22 22 20 19 19 19 20 21 21 23 24 23 22 21 22 25 25 24 26 28 34 38 39 39 41 47 55 65 73 78 82 84 85 83 79 78 77 77 78 77
Wind_Direction
228 223 224 225 226 222 221 218 215 216 222 222 218 222 214 209 208 209 213 217 218 217 218 218 224 224 222 220 218 220 219 217 217 217 217 216 217 216 219 222 222 226 230 238
230 226 223 223 223 222 220 221 217 216 211 215 214 220 217 213 210 207 212 215 220 219 216 216 223 225 229 224 222 222 221 219 216 218 218 216 218 222 223 226 223 227 234 240
225 225 223 223 222 226 221 223 221 218 219 215 211 213 220 213 208 208 209 211 212 215 214 217 219 223 229 226 223 221 218 219 221 222 221 218 220 224 226 223 225 230 233 239
226 225 225 220 218 224 220 221 223 220 219 214 211 213 215 217 210 207 208 209 209 213 214 215 215 221 223 216 224 222 219 220 221 223 223 222 222 221 223 224 225 233 236 232
223 223 216 215 214 216 214 213 222 216 219 213 210 213 213 217 213 210 207 209 209 211 214 216 214 224 221 222 230 229 226 224 224 225 225 222 220 220 224 227 227 232 231 229
217 220 216 214 211 215 218 222 221 215 215 210 208 211 217 213 217 211 211 215 213 211 218 222 217 221 216 224 228 237 239 232 230 226 226 224 221 222 225 225 226 229 226 227
223 217 206 205 207 213 210 216 215 213 213 210 210 209 212 210 219 217 212 215 217 219 219 213 214 219 217 220 227 232 238 240 233 231 227 225 222 223 224 224 225 224 224 221
230 210 194 193 206 214 210 215 216 209 206 208 206 206 214 214 219 221 217 215 215 214 214 214 214 217 215 219 218 228 236 243 237 233 229 230 228 225 225 226 226 222 221 220
180 177 189 189 201 214 212 216 213 209 203 206 203 205 211 215 219 220 219 215 216 215 214 214 215 216 218 211 211 224 233 241 235 225 228 231 228 226 224 225 222 221 219 221
99 124 203 195 199 198 213 204 213 212 205 203 201 204 203 213 221 217 215 216 218 217 216 215 218 224 222 221 211 222 226 235 236 229 222 227 229 225 221 218 218 219 222 225
138 146 197 215 215 227 200 197 202 209 207 201 200 203 203 211 216 211 204 210 215 215 216 215 212 211 214 212 211 218 224 230 232 229 222 223 224 219 214 214 217 221 224 228
197 184 200 253 240 234 187 202 187 195 203 200 202 202 202 207 213 206 201 206 209 199 202 204 207 212 217 216 215 215 225 230 225 226 223 220 219 215 214 216 217 222 231 234
266 214 212 255 247 219 191 208 195 190 195 200 203 201 201 202 207 205 200 206 209 204 201 206 209 210 210 213 210 219 223 221 221 224 224 220 220 218 220 220 219 223 227 237
14 350 238 235 238 235 182 196 202 197 198 205 203 201 200 202 204 205 205 206 206 203 200 201 200 199 199 206 210 213 209 218 219 220 225 222 217 222 223 225 236 220 228 246
15 347 310 240 226 207 184 195 199 198 203 209 204 203 205 203 205 207 206 207 205 206 206 206 207 208 209 210 215 217 230 249 222 224 232 230 232 226 224 227 235 236 225 235
24 6 4 299 198 196 188 198 198 205 207 212 205 205 206 207 207 209 210 213 211 205 209 210 212 215 215 214 212 215 227 235 236 237 234 221 225 229 232 240 252 259 231 235
15 8 351 342 198 201 219 201 202 201 208 214 216 215 215 215 213 211 215 215 216 214 212 213 213 217 216 215 215 220 227 237 243 250 256 268 277 250 227 234 244 252 248 247
354 353 356 344 327 283 193 209 205 213 213 217 224 223 223 221 216 214 215 217 221 218 218 221 221 214 216 218 220 224 230 234 238 246 249 255 258 247 239 239 240 242 242 241
345 345 326 316 324 309 300 229 203 218 218 220 222 227 225 221 223 222 220 221 223 226 229 229 228 230 216 213 221 224 226 231 238 242 243 245 244 240 244 241 244 249 248 247
326 327 324 306 268 250 247 258 255 246 217 216 224 230 230 217 216 218 221 224 226 227 229 232 237 239 237 234 230 226 230 233 235 238 240 241 244 248 248 249 250 251 256 252
307 304 308 302 285 261 248 219 218 231 235 237 232 227 225 233 234 233 238 222 220 228 232 234 232 236 241 243 244 245 240 239 239 240 244 246 246 246 248 246 249 253 256 258
301 300 300 298 293 277 256 254 253 230 225 236 241 239 236 235 235 227 230 233 233 236 236 233 234 238 240 239 240 240 241 242 243 244 245 250 251 247 247 248 251 256 259 263
300 296 293 291 285 281 272 255 247 245 237 227 229 235 239 241 240 235 229 226 226 229 231 235 243 245 244 243 242 242 243 244 246 247 246 247 248 250 251 252 253 256 261 261
304 298 293 285 281 280 271 264 254 246 244 239 235 232 232 234 240 243 240 237 236 235 235 237 237 238 242 242 242 248 246 245 251 254 255 253 255 256 251 253 253 253 256 256
300 299 298 293 286 275 270 269 259 251 247 246 244 240 236 233 231 233 234 236 235 234 233 237 242 245 246 244 244 244 244 247 252 253 254 255 257 252 256 256 253 256 260 259
298 295 290 286 284 281 274 266 263 265 258 249 246 247 246 243 240 240 237 236 237 237 238 241 244 245 246 245 243 243 243 245 246 248 250 251 250 249 250 251 253 255 256 257
297 294 292 286 283 282 280 276 271 267 262 258 254 249 248 250 250 248 248 247 245 239 239 245 245 244 246 247 249 250 247 247 246 245 244 244 245 245 246 247 248 249 251 252
Height
5662 5669 5674 5682 5692 5701 5710 5719 5729 5752 5760 5772 5784 5793 5802 5808 5813 5823 5831 5837 5845 5852 5858 5863 5866 5871 5875 5879 5883 5887 5892 5896 5902 5906 5910 5914 5918 5921 5924 5928 5932 5935 5937 5939
5647 5655 5662 5669 5679 5687 5697 5706 5717 5731 5739 5762 5773 5780 5792 5797 5808 5813 5820 5829 5837 5844 5850 5857 5862 5867 5870 5874 5878 5883 5888 5893 5895 5898 5903 5909 5913 5916 5920 5924 5928 5931 5934 5935
5635 5641 5647 5656 5673 5683 5693 5699 5709 5720 5735 5749 5760 5772 5781 5792 5799 5804 5812 5820 5828 5835 5843 5850 5857 5862 5866 5870 5872 5877 5882 5886 5889 5893 5898 5904 5908 5911 5915 5919 5923 5928 5930 5932
5625 5629 5638 5659 5668 5670 5678 5687 5696 5707 5721 5737 5750 5762 5772 5780 5789 5796 5804 5811 5819 5828 5837 5845 5850 5856 5859 5863 5867 5872 5876 5880 5884 5889 5893 5897 5901 5906 5910 5914 5919 5922 5926 5928
5616 5624 5633 5640 5645 5658 5658 5673 5676 5695 5710 5729 5744 5752 5762 5769 5778 5787 5795 5803 5812 5821 5831 5838 5845 5851 5855 5858 5863 5866 5870 5875 5881 5885 5888 5891 5896 5901 5905 5909 5914 5917 5920 5924
5610 5614 5623 5628 5642 5650 5661 5671 5678 5687 5699 5720 5732 5740 5749 5758 5767 5776 5785 5793 5803 5814 5824 5831 5840 5845 5850 5854 5858 5861 5866 5872 5875 5879 5882 5887 5891 5894 5899 5903 5908 5912 5916 5920
5605 5608 5616 5622 5632 5642 5650 5659 5667 5677 5691 5708 5718 5728 5741 5752 5759 5768 5776 5784 5796 5806 5817 5824 5831 5837 5843 5849 5854 5858 5859 5863 5868 5873 5877 5881 5884 5887 5893 5898 5902 5908 5912 5914
5601 5604 5611 5622 5629 5636 5643 5653 5660 5671 5684 5699 5713 5724 5730 5743 5751 5758 5767 5776 5785 5795 5806 5812 5822 5830 5836 5843 5846 5849 5851 5857 5861 5865 5870 5874 5879 5884 5888 5893 5897 5902 5906 5910
5598 5606 5612 5620 5628 5634 5641 5648 5657 5667 5679 5693 5706 5716 5726 5736 5743 5749 5758 5766 5774 5784 5794 5802 5811 5819 5827 5833 5838 5841 5846 5850 5853 5856 5861 5867 5873 5878 5882 5887 5892 5897 5901 5905
5602 5610 5615 5618 5623 5629 5636 5645 5653 5663 5675 5687 5700 5710 5720 5729 5734 5744 5752 5759 5765 5775 5784 5794 5802 5809 5816 5823 5831 5834 5839 5842 5846 5849 5854 5860 5865 5870 5875 5881 5886 5891 5895 5899
5606 5610 5615 5618 5621 5624 5629 5639 5647 5658 5670 5682 5693 5703 5713 5721 5729 5737 5744 5751 5756 5765 5774 5783 5790 5798 5805 5812 5820 5826 5831 5835 5839 5842 5846 5852 5857 5862 5867 5873 5879 5883 5887 5891
5608 5609 5613 5615 5618 5622 5627 5632 5641 5650 5664 5676 5686 5697 5707 5716 5723 5731 5738 5745 5750 5758 5766 5774 5782 5789 5796 5803 5811 5818 5823 5827 5831 5835 5839 5843 5849 5855 5859 5865 5870 5875 5879 5883
5607 5608 5610 5612 5614 5615 5623 5628 5637 5650 5659 5669 5679 5690 5699 5709 5717 5725 5732 5739 5744 5751 5758 5765 5773 5779 5786 5795 5802 5808 5814 5820 5824 5829 5833 5837 5842 5848 5852 5856 5859 5861 5866 5873
5606 5607 5608 5608 5610 5612 5619 5629 5640 5650 5657 5665 5674 5683 5692 5702 5710 5717 5724 5731 5737 5742 5749 5755 5762 5768 5776 5785 5788 5794 5799 5809 5812 5819 5826 5829 5834 5837 5842 5848 5836 5839 5852 5859
5607 5605 5605 5605 5606 5610 5619 5628 5637 5644 5652 5661 5668 5675 5684 5693 5702 5708 5715 5722 5728 5734 5741 5749 5755 5761 5765 5772 5778 5783 5791 5790 5792 5808 5813 5816 5823 5828 5829 5822 5834 5829 5838 5845
5609 5608 5606 5604 5607 5612 5617 5625 5632 5640 5647 5655 5661 5668 5676 5685 5693 5701 5708 5714 5720 5727 5734 5740 5745 5751 5757 5763 5769 5777 5782 5786 5793 5794 5786 5793 5801 5811 5815 5810 5824 5824 5834 5836
5609 5607 5606 5606 5607 5609 5611 5620 5627 5633 5640 5649 5657 5663 5670 5676 5684 5692 5699 5705 5711 5718 5724 5729 5732 5738 5744 5752 5761 5769 5775 5780 5784 5784 5783 5784 5790 5798 5809 5814 5815 5816 5819 5825
5611 5610 5608 5606 5604 5605 5609 5613 5620 5626 5633 5640 5646 5652 5658 5666 5674 5681 5687 5695 5699 5703 5710 5716 5721 5728 5737 5745 5751 5758 5765 5771 5775 5778 5782 5786 5788 5793 5799 5802 5806 5808 5811 5817
5614 5612 5611 5609 5607 5606 5604 5607 5613 5619 5626 5632 5637 5641 5646 5653 5662 5669 5676 5684 5690 5695 5698 5702 5707 5713 5722 5729 5738 5746 5752 5758 5763 5767 5772 5777 5781 5782 5786 5790 5794 5799 5804 5807
5612 5612 5612 5610 5609 5609 5608 5607 5610 5611 5616 5621 5626 5631 5637 5644 5650 5656 5662 5672 5678 5682 5687 5692 5697 5702 5708 5715 5721 5729 5738 5745 5750 5755 5760 5764 5767 5770 5773 5779 5782 5787 5790 5792
5608 5609 5609 5609 5608 5606 5605 5609 5611 5612 5613 5615 5618 5622 5626 5632 5637 5643 5651 5657 5664 5670 5676 5681 5686 5692 5698 5705 5711 5717 5722 5729 5734 5739 5744 5748 5752 5757 5763 5767 5770 5773 5775 5777
5603 5600 5600 5603 5603 5603 5603 5600 5600 5604 5607 5609 5611 5613 5617 5623 5628 5633 5641 5646 5650 5655 5662 5668 5674 5679 5687 5693 5698 5704 5709 5713 5719 5723 5727 5730 5732 5737 5744 5749 5753 5755 5757 5760
5592 5592 5594 5592 5596 5597 5598 5599 5598 5599 5600 5604 5606 5607 5609 5613 5617 5621 5627 5632 5636 5640 5646 5651 5657 5665 5672 5678 5683 5688 5692 5698 5702 5707 5710 5715 5719 5724 5728 5731 5734 5737 5739 5741
5586 5584 5584 5586 5587 5586 5590 5591 5593 5594 5595 5596 5597 5599 5601 5603 5606 5609 5612 5617 5622 5627 5632 5638 5643 5649 5654 5659 5665 5669 5674 5679 5683 5688 5691 5695 5698 5702 5706 5708 5711 5714 5717 5718
5579 5578 5577 5576 5577 5579 5580 5580 5583 5586 5587 5588 5590 5591 5592 5595 5598 5601 5602 5606 5609 5614 5617 5622 5627 5632 5636 5641 5645 5649 5654 5657 5661 5664 5668 5671 5675 5677 5681 5684 5688 5690 5693 5696
5573 5570 5570 5569 5569 5570 5571 5572 5572 5572 5575 5579 5581 5582 5583 5585 5587 5589 5592 5595 5597 5599 5602 5606 5610 5613 5617 5620 5623 5628 5631 5635 5638 5641 5643 5646 5650 5655 5658 5660 5663 5665 5669 5672
5566 5564 5562 5561 5561 5561 5561 5562 5563 5565 5567 5568 5570 5572 5574 5575 5577 5579 5580 5582 5585 5587 5589 5591 5595 5600 5602 5604 5606 5608 5609 5612 5614 5617 5619 5622 5625 5629 5633 5636 5638 5641 5643 5646